Regional Weather Roundup
Issued by NWS

Home | Current Version | Previous Version | Text Only | Print | Product List | Glossary On
Versions: 1 2 3 4 5 6 7 8 9 10 11 12 13 14 15 16 17 18 19 20 21 22 23 24 25 26 27 28 29 30 31 32 33 34 35 36 37 38 39 40 41 42 43 44 45 46 47 48 49 50
000
ASUS43 KOAX 111702
RWRNE

WEATHER ROUNDUP FOR NEBRASKA
NATIONAL WEATHER SERVICE OMAHA NE
1100 AM CST MON DEC 11 2017

NOTES: SATELLITE DATA IS BEING USED TO AUGMENT CLOUD COVER ABOVE
       12000 FEET.
       "FAIR" INDICATES FEW OR NO CLOUDS BELOW 12,000 FEET WITH NO
       SIGNIFICANT WEATHER AND/OR OBSTRUCTIONS TO VISIBILITY.


NEZ001>004-019>022-054>056-111800-
NEBRASKA PANHANDLE

CITY           SKY/WX    TMP DP  RH WIND       PRES   REMARKS
SCOTTSBLUFF    SUNNY     45  14  28 NW22G30   30.35R
ALLIANCE       CLOUDY    46  14  27 NW29G41   30.26R
CHADRON        MOSUNNY   43  17  35 NW23G38   30.31R
GORDON         FAIR      44  21  38 NW23G30   30.25R
KIMBALL        SUNNY     47  11  23 NW21G33   30.35R
SIDNEY         CLOUDY    49  13  23 NW32G44   30.30R
$$

NEZ057>060-069>072-079>082-111800-
SOUTHWEST NEBRASKA

CITY           SKY/WX    TMP DP  RH WIND       PRES   REMARKS
NORTH PLATTE   SUNNY     53  15  22 NW29G40   30.20R
IMPERIAL       SUNNY     52  14  22 NW23G32   30.26R
LEXINGTON      CLOUDY    52  19  26 NW31G39   30.17R
MCCOOK         SUNNY     50  15  24 NW17G26   30.21F
OGALLALA       SUNNY     50  16  25 NW24G33   30.23R
$$

NEZ005>010-023>029-035>040-094-111800-
NORTH CENTRAL NEBRASKA

CITY           SKY/WX    TMP DP  RH WIND       PRES   REMARKS
VALENTINE      CLOUDY    43  26  51 N26G33    30.20R
AINSWORTH      CLOUDY    41  28  60 NW36G43   30.19R
BROKEN BOW     SUNNY     48  22  35 N33G41    30.15R
O`NEILL        CLOUDY    43  30  59 NW33G46   30.11R
ORD            PTSUNNY   47  26  44 NW32G49   30.11R
THEDFORD       MOSUNNY   47  23  38 NW35G40   30.19R
$$

NEZ041-046>049-061>064-073>077-083>087-111800-
SOUTH CENTRAL NEBRASKA

CITY           SKY/WX    TMP DP  RH WIND       PRES   REMARKS
GRAND ISLAND   CLOUDY    48  26  42 NW33G47   30.13R
AURORA         PTSUNNY   49  25  39 NW33G43   30.10S
HASTINGS       SUNNY     50  20  30 NW36G46   30.13R
HEBRON         MOSUNNY   53  20  27 N21G36    30.10R
HOLDREGE       CLOUDY    51  21  31 NW24      30.15R
KEARNEY        SUNNY     50  20  30 N33G43    30.14R
$$

NEZ011>018-030>034-042>045-111800-
NORTHEAST NEBRASKA

CITY           SKY/WX    TMP DP  RH WIND       PRES   REMARKS
NORFOLK        CLOUDY    45  30  55 NW32G47   30.01R
ALBION         CLOUDY    47  28  48 NW39G53   30.05R
BLAIR          CLOUDY    47  32  56 NW24G39   29.97R
COLUMBUS       CLOUDY    48  28  46 NW25G35   30.05R
FREMONT        CLOUDY    48  30  50 NW32G47   30.02R
TEKAMAH        CLOUDY    47  30  51 NW31G41   29.97R
WAYNE          CLOUDY    45  29  55 NW24G40   29.99R
$$

NEZ050>053-065>068-078-088>093-111800-
SOUTHEAST NEBRASKA

CITY           SKY/WX    TMP DP  RH WIND       PRES   REMARKS
LINCOLN        SUNNY     50  27  40 NW32G47   30.05R
OMAHA EPPLEY   CLOUDY    48  30  49 NW26G39   29.96R
BEATRICE       SUNNY     52  26  36 NW29G44   30.05R
FALLS CITY     SUNNY     53  24  32 NW31G46   29.98S
NEBRASKA CITY  SUNNY     50  29  44 N25G39    29.99R
PLATTSMOUTH    PTSUNNY   49  31  51 NW31G45   29.97S
$$

NEZ044-045-051>053-067-111800-
OMAHA AREA

CITY           SKY/WX    TMP DP  RH WIND       PRES   REMARKS
OMAHA EPPLEY   CLOUDY    48  30  49 NW26G39   29.96R
BLAIR          CLOUDY    47  32  56 NW24G39   29.97R
FREMONT        CLOUDY    48  30  50 NW32G47   30.02R
MILLARD        CLOUDY    50  32  50 NW23G35   29.99R
OFFUTT AFB     CLOUDY    49  29  46 NW25G40   29.97R
PLATTSMOUTH    PTSUNNY   49  31  51 NW31G45   29.97S
WAHOO          CLOUDY    49  28  45 NW30G44   30.01R
$$




USA.gov is the U.S. government's official web portal to all federal, state and local government web resources and services.